Location: Ash Observatory
(39.7321°N, 75.2004°W)
Time: 18:05:58
(UTC-04:00)

ISS - Pass Details

Date: 27 May 2019
Orbit: 407 x 418 km, 51.6° (Epoch: 20 June)

Event Time Altitude Azimuth Distance (km) Brightness Sun altitude
Rises 23:33:41 0° 313° (NW) 2,360 1.1 -25.8°
Reaches altitude 10° 23:35:58 10° 325° (NW) 1,497 0.0 -25.9°
Enters shadow 23:38:09 26° 2° (N) 874 -1.6 -26.1°
